GW0979 Weather Reports


time (UTC)temp
C
wind
direction
speed
KPH
gust
KPH
rain 1hr
cm
rain 24hr
cm
rain mn
cm
humidity
%
barometer
mb
20260509112852 1 206 1.6 1.6 0.00 0.00 0.00 90 1013.1
20260509112349 0 192 0.0 1.6 0.00 0.00 0.00 92 1013.1
20260509111846 0 186 0.0 0.0 0.00 0.00 0.00 94 1013.1
20260509111343 0 198 0.0 0.0 0.00 0.00 0.00 95 1013.3
20260509110841 0 180 0.0 0.0 0.00 0.00 0.00 96 1013.0
20260509110336 0 180 0.0 0.0 0.00 0.00 0.00 97 1013.1
20260509105835 -1 180 0.0 0.0 0.00 0.00 0.00 97 1013.3
20260509105333 -1 180 0.0 0.0 0.00 0.00 0.00 97 1013.2
20260509104829 -1 180 0.0 0.0 0.00 0.00 0.00 97 1013.1
20260509104326 -1 180 0.0 0.0 0.00 0.00 0.00 97 1013.3
20260509103824 -1 180 0.0 0.0 0.00 0.00 0.00 97 1013.1
20260509103321 -1 180 0.0 0.0 0.00 0.00 0.00 98 1013.3
20260509102820 -2 180 0.0 0.0 0.00 0.00 0.00 98 1013.2
20260509102317 -2 180 0.0 0.0 0.00 0.00 0.00 98 1013.3
20260509101812 -2 180 0.0 0.0 0.00 0.00 0.00 98 1013.3
20260509101308 -2 180 0.0 0.0 0.00 0.00 0.00 98 1013.3
20260509100807 -2 180 0.0 0.0 0.00 0.00 0.00 98 1013.1
20260509100303 -2 180 0.0 0.0 0.00 0.00 0.00 98 1013.1
20260509095800 -2 179 0.0 0.0 0.00 0.00 0.00 98 1013.2
20260509095257 -2 179 0.0 0.0 0.00 0.00 0.00 98 1013.1
20260509094754 -2 179 0.0 0.0 0.00 0.00 0.00 98 1013.0
20260509094251 -2 179 0.0 0.0 0.00 0.00 0.00 98 1012.9
20260509093749 -2 179 0.0 0.0 0.00 0.00 0.00 97 1012.8
20260509093246 -2 179 0.0 0.0 0.00 0.00 0.00 97 1012.8
20260509092744 -2 179 0.0 0.0 0.00 0.00 0.00 97 1012.9
20260509092242 -2 179 0.0 0.0 0.00 0.00 0.00 97 1012.8
20260509091739 -2 179 0.0 0.0 0.00 0.00 0.00 97 1012.7
20260509091235 -2 179 0.0 0.0 0.00 0.00 0.00 97 1012.5
20260509090733 -2 179 0.0 0.0 0.00 0.00 0.00 97 1012.6
20260509090231 -2 179 0.0 0.0 0.00 0.00 0.00 97 1012.4
20260509085728 -2 179 0.0 0.0 0.00 0.00 0.00 97 1012.5
20260509085225 -2 179 0.0 0.0 0.00 0.00 0.00 97 1012.8
20260509084721 -2 179 0.0 0.0 0.00 0.00 0.00 97 1012.5
20260509084218 -2 179 0.0 0.0 0.00 0.00 0.00 97 1012.5
20260509083716 -2 179 0.0 0.0 0.00 0.00 0.00 97 1012.6
20260509083212 -2 179 0.0 0.0 0.00 0.00 0.00 97 1012.8
20260509082709 -2 179 0.0 0.0 0.00 0.00 0.00 97 1012.7
20260509082206 -2 179 0.0 0.0 0.00 0.00 0.00 97 1012.7
20260509081703 -2 179 0.0 0.0 0.00 0.00 0.00 97 1012.6
20260509081200 -2 179 0.0 0.0 0.00 0.00 0.00 96 1012.6
20260509080658 -2 179 0.0 0.0 0.00 0.00 0.00 96 1012.5
20260509080156 -2 179 0.0 0.0 0.00 0.00 0.00 96 1012.5
20260509075654 -2 179 0.0 0.0 0.00 0.00 0.00 96 1012.7
20260509075151 -2 179 0.0 0.0 0.00 0.00 0.00 96 1012.5
20260509074648 -2 179 0.0 0.0 0.00 0.00 0.00 96 1012.6
20260509074144 -2 179 0.0 0.0 0.00 0.00 0.00 96 1012.5
20260509073641 -2 179 0.0 0.0 0.00 0.00 0.00 96 1012.8
20260509073137 -2 179 0.0 0.0 0.00 0.00 0.00 96 1012.6
20260509072635 -2 179 0.0 0.0 0.00 0.00 0.00 96 1012.7
20260509072131 -2 179 0.0 0.0 0.00 0.00 0.00 96 1012.6
20260509071628 -2 179 0.0 0.0 0.00 0.00 0.00 95 1012.6
20260509071125 -2 179 0.0 0.0 0.00 0.00 0.00 95 1012.8
20260509070622 -2 179 0.0 0.0 0.00 0.00 0.00 95 1012.6
20260509070119 -2 179 0.0 0.0 0.00 0.00 0.00 95 1012.6
20260509065614 -2 179 0.0 0.0 0.00 0.00 0.00 95 1012.8
20260509065110 -2 179 0.0 0.0 0.00 0.00 0.00 95 1012.8
20260509064608 -2 179 0.0 0.0 0.00 0.00 0.00 95 1012.7
20260509064106 -2 179 0.0 0.0 0.00 0.00 0.00 95 1012.6
20260509063602 -2 179 0.0 0.0 0.00 0.00 0.00 94 1012.7
20260509063059 -2 179 0.0 0.0 0.00 0.00 0.00 94 1012.7
20260509062556 -1 179 0.0 0.0 0.00 0.00 0.00 94 1012.6
20260509062053 -1 179 0.0 0.0 0.00 0.00 0.00 94 1012.8
20260509061550 -1 179 0.0 0.0 0.00 0.00 0.00 94 1012.8
20260509061047 -1 179 0.0 0.0 0.00 0.00 0.00 93 1012.9
20260509060545 -1 179 0.0 0.0 0.00 0.00 0.00 93 1012.8
20260509060040 -1 179 0.0 0.0 0.00 0.00 0.00 93 1012.6
20260509055536 -1 179 0.0 0.0 0.00 0.00 0.00 93 1012.9
20260509055032 -1 179 0.0 0.0 0.00 0.00 0.00 92 1012.9
20260509054529 -1 179 0.0 0.0 0.00 0.00 0.00 92 1012.9
20260509054027 -1 179 0.0 0.0 0.00 0.00 0.00 92 1012.7
20260509053526 -1 179 0.0 0.0 0.00 0.00 0.00 92 1012.8
20260509053022 -1 179 0.0 0.0 0.00 0.00 0.00 92 1012.5
20260509052520 -1 179 0.0 0.0 0.00 0.00 0.00 91 1012.6
20260509052018 0 179 0.0 0.0 0.00 0.00 0.00 91 1012.6
20260509051515 0 179 0.0 0.0 0.00 0.00 0.00 91 1012.3
20260509051012 0 179 0.0 0.0 0.00 0.00 0.00 91 1012.5
20260509050509 0 179 0.0 0.0 0.00 0.00 0.00 92 1012.3
20260509050005 0 179 0.0 0.0 0.00 0.00 0.00 91 1012.4
20260509045503 0 179 0.0 0.0 0.00 0.00 0.00 91 1012.1
20260509045000 0 179 0.0 0.0 0.00 0.00 0.00 91 1012.4
20260509044457 0 179 0.0 0.0 0.00 0.00 0.00 91 1012.4
20260509043954 0 179 0.0 0.0 0.00 0.00 0.00 90 1012.5
20260509043450 0 179 0.0 0.0 0.00 0.00 0.00 89 1012.4
20260509042945 0 179 0.0 0.0 0.00 0.00 0.00 88 1012.3
20260509042443 0 179 0.0 0.0 0.00 0.00 0.00 88 1012.3
20260509041939 0 179 0.0 0.0 0.00 0.00 0.00 87 1012.4
20260509041436 0 179 0.0 0.0 0.00 0.00 0.00 87 1012.1
20260509040934 0 179 0.0 0.0 0.00 0.00 0.00 87 1012.4
20260509040432 0 179 0.0 1.6 0.00 0.00 0.00 86 1012.0
20260509035928 1 179 0.0 0.0 0.00 0.00 0.00 86 1012.1
20260509035425 1 177 0.0 0.0 0.00 0.00 0.00 87 1012.4
20260509034921 0 176 0.0 0.0 0.00 0.00 0.00 87 1012.3
20260509034420 1 176 0.0 0.0 0.00 0.00 0.00 87 1012.1
20260509033916 1 176 0.0 0.0 0.00 0.00 0.00 87 1012.1
20260509033413 1 176 0.0 0.0 0.00 0.00 0.00 87 1012.1
20260509032910 1 177 0.0 0.0 0.00 0.00 0.00 86 1012.3
20260509032407 1 177 0.0 0.0 0.00 0.00 0.00 86 1012.0
20260509031905 1 177 0.0 0.0 0.00 0.00 0.00 85 1011.9
20260509031402 1 176 0.0 0.0 0.00 0.00 0.00 85 1011.9
20260509030900 1 176 0.0 0.0 0.00 0.00 0.00 85 1011.9
20260509030358 1 176 0.0 0.0 0.00 0.00 0.00 85 1011.9
20260509025854 2 176 0.0 0.0 0.00 0.00 0.00 84 1011.8
20260509025349 2 176 0.0 0.0 0.00 0.00 0.00 84 1011.9
20260509024845 2 176 0.0 0.0 0.00 0.00 0.00 84 1011.7
20260509024341 2 176 0.0 0.0 0.00 0.00 0.00 83 1011.7
20260509023839 2 176 0.0 0.0 0.00 0.00 0.00 83 1011.5
20260509023336 2 176 0.0 0.0 0.00 0.00 0.00 83 1011.6
20260509022832 2 176 0.0 0.0 0.00 0.00 0.00 83 1011.5
20260509022330 2 176 0.0 0.0 0.00 0.00 0.00 82 1011.5
20260509021827 2 176 0.0 0.0 0.00 0.00 0.00 82 1011.5
20260509021324 2 176 0.0 0.0 0.00 0.00 0.00 83 1011.6
20260509020821 2 176 0.0 0.0 0.00 0.00 0.00 81 1011.5
20260509020319 2 176 0.0 0.0 0.00 0.00 0.00 79 1011.4
20260509015817 3 176 0.0 0.0 0.00 0.00 0.00 78 1011.4
20260509015315 3 176 0.0 0.0 0.00 0.00 0.00 77 1011.4
20260509014811 3 176 0.0 0.0 0.00 0.00 0.00 77 1011.2
20260509014308 3 176 0.0 0.0 0.00 0.00 0.00 77 1011.3
20260509013804 4 176 0.0 0.0 0.00 0.00 0.00 77 1011.1
20260509013300 4 176 0.0 1.6 0.00 0.00 0.00 76 1011.0
20260509012757 4 176 0.0 0.0 0.00 0.00 0.00 74 1011.0
20260509012254 4 176 0.0 0.0 0.00 0.00 0.00 71 1010.9
20260509011751 5 176 0.0 0.0 0.00 0.00 0.00 71 1010.5
20260509011248 5 176 0.0 0.0 0.00 0.00 0.00 71 1010.8
20260509010746 5 176 0.0 0.0 0.00 0.00 0.00 70 1010.7
20260509010243 5 175 0.0 0.0 0.00 0.00 0.00 71 1010.7
20260509005740 5 175 0.0 0.0 0.00 0.00 0.00 68 1010.5
20260509005237 5 175 0.0 0.0 0.00 0.00 0.00 67 1010.4
20260509004731 5 175 0.0 0.0 0.00 0.00 0.00 66 1010.3
20260509004229 6 175 0.0 0.0 0.00 0.00 0.00 67 1010.2
20260509003727 6 175 0.0 0.0 0.00 0.00 0.00 64 1010.1
20260509003225 6 175 0.0 0.0 0.00 0.00 0.00 63 1010.2
20260509002722 6 175 0.0 0.0 0.00 0.00 0.00 64 1010.2
20260509002219 6 175 0.0 0.0 0.00 0.00 0.00 64 1009.9
20260509001717 6 175 0.0 0.0 0.00 0.00 0.00 62 1010.0
20260509001212 7 175 0.0 0.0 0.00 0.00 0.00 60 1009.8
20260509000711 7 175 0.0 0.0 0.00 0.00 0.00 58 1009.8
20260509000207 7 175 0.0 0.0 0.00 0.00 0.00 57 1009.9
20260508235704 8 175 0.0 0.0 0.00 0.00 0.00 58 1009.7
20260508235201 8 175 0.0 0.0 0.00 0.00 0.00 55 1009.7
20260508234659 8 175 0.0 0.0 0.00 0.00 0.00 53 1009.5
20260508234155 8 175 0.0 0.0 0.00 0.00 0.00 54 1009.4
20260508233654 9 176 0.0 0.0 0.00 0.00 0.00 53 1009.5
20260508233151 9 176 0.0 0.0 0.00 0.00 0.00 49 1009.5
20260508232649 9 176 0.0 0.0 0.00 0.00 0.00 51 1009.5
20260508232145 10 176 0.0 0.0 0.00 0.00 0.00 49 1009.5
20260508231643 10 176 0.0 0.0 0.00 0.00 0.00 44 1009.5
20260508231139 10 176 0.0 0.0 0.00 0.00 0.00 47 1009.4
20260508230636 10 176 0.0 0.0 0.00 0.00 0.00 41 1009.2
20260508230133 10 187 0.0 0.0 0.00 0.00 0.00 45 1009.4
20260508225631 10 185 0.0 0.0 0.00 0.00 0.00 41 1009.4
20260508225127 10 180 0.0 0.0 0.00 0.00 0.00 45 1009.2
20260508224625 10 180 0.0 0.0 0.00 0.00 0.00 45 1009.4
20260508224122 10 177 0.0 0.0 0.00 0.00 0.00 43 1009.5
20260508223620 10 176 0.0 0.0 0.00 0.00 0.00 44 1009.4
20260508223116 10 176 0.0 0.0 0.00 0.00 0.00 42 1009.5
20260508222614 10 192 0.0 1.6 0.00 0.00 0.00 40 1009.5
20260508222111 10 177 0.0 0.0 0.00 0.00 0.00 42 1009.5
20260508221607 10 173 0.0 0.0 0.00 0.00 0.00 40 1009.5
20260508221103 10 180 0.0 0.0 0.00 0.00 0.00 40 1009.3
20260508220600 10 349 4.8 4.8 0.00 0.00 0.00 39 1009.2
20260508220056 10 189 1.6 1.6 0.00 0.00 0.00 40 1009.2
20260508215553 10 11 4.8 8.0 0.00 0.00 0.00 41 1009.0
20260508215050 10 234 1.6 1.6 0.00 0.00 0.00 39 1009.1
20260508214547 10 181 0.0 1.6 0.00 0.00 0.00 41 1009.1
20260508214043 10 278 3.2 3.2 0.00 0.00 0.00 40 1009.2
20260508213541 10 114 1.6 3.2 0.00 0.00 0.00 41 1009.1
20260508213036 11 22 4.8 8.0 0.00 0.00 0.00 40 1009.0
20260508212533 10 153 0.0 1.6 0.00 0.00 0.00 43 1009.1
20260508212029 10 163 1.6 3.2 0.00 0.00 0.00 41 1009.0
20260508211525 10 173 0.0 1.6 0.00 0.00 0.00 40 1009.0
20260508211022 11 160 4.8 9.7 0.00 0.00 0.00 39 1009.0
20260508210518 11 220 1.6 1.6 0.00 0.00 0.00 39 1008.7
20260508210016 11 1 8.0 9.7 0.00 0.00 0.00 39 1008.9
20260508205513 11 180 3.2 3.2 0.00 0.00 0.00 43 1009.0
20260508205009 11 187 1.6 1.6 0.00 0.00 0.00 42 1008.9
20260508204507 11 181 0.0 0.0 0.00 0.00 0.00 41 1008.9
20260508204002 11 20 6.4 8.0 0.00 0.00 0.00 41 1008.9
20260508203458 10 175 1.6 1.6 0.00 0.00 0.00 41 1009.0
20260508202953 11 180 1.6 1.6 0.00 0.00 0.00 40 1008.7
20260508202451 11 178 0.0 0.0 0.00 0.00 0.00 42 1008.8
20260508201948 11 174 1.6 1.6 0.00 0.00 0.00 43 1009.0
20260508201444 10 189 0.0 0.0 0.00 0.00 0.00 43 1008.5
20260508200941 11 183 1.6 1.6 0.00 0.00 0.00 42 1008.9
20260508200438 11 182 3.2 3.2 0.00 0.00 0.00 43 1008.8
20260508195933 10 176 0.0 0.0 0.00 0.00 0.00 44 1008.8
20260508195431 10 177 1.6 1.6 0.00 0.00 0.00 42 1008.9
20260508194926 10 159 0.0 1.6 0.00 0.00 0.00 44 1008.7
20260508194424 10 208 1.6 3.2 0.00 0.00 0.00 41 1008.8
20260508193920 11 156 1.6 1.6 0.00 0.00 0.00 41 1008.7
20260508193418 11 166 1.6 3.2 0.00 0.00 0.00 41 1008.6
20260508192914 10 131 1.6 1.6 0.00 0.00 0.00 45 1008.8
20260508192411 11 159 1.6 1.6 0.00 0.00 0.00 42 1008.6
20260508191908 11 2 1.6 3.2 0.00 0.00 0.00 46 1008.9
20260508191406 11 176 3.2 3.2 0.00 0.00 0.00 41 1008.9
20260508190902 11 180 1.6 1.6 0.00 0.00 0.00 47 1008.9
20260508190359 10 177 1.6 1.6 0.00 0.00 0.00 48 1009.0
20260508185855 10 63 6.4 8.0 0.00 0.00 0.00 43 1008.8
20260508185353 10 172 4.8 4.8 0.00 0.00 0.00 43 1008.8
20260508184850 10 169 1.6 1.6 0.00 0.00 0.00 45 1008.9
20260508184347 10 335 3.2 4.8 0.00 0.00 0.00 42 1009.2
20260508183844 10 170 4.8 4.8 0.00 0.00 0.00 43 1009.0
20260508183340 10 178 3.2 3.2 0.00 0.00 0.00 42 1008.9
20260508182836 10 192 0.0 1.6 0.00 0.00 0.00 42 1009.2
20260508182333 11 176 3.2 3.2 0.00 0.00 0.00 41 1009.1
20260508181829 11 166 4.8 8.0 0.00 0.00 0.00 42 1009.0
20260508181326 10 166 1.6 3.2 0.00 0.00 0.00 44 1009.1
20260508180823 10 176 0.0 1.6 0.00 0.00 0.00 44 1009.2
20260508180320 10 293 3.2 3.2 0.00 0.00 0.00 42 1009.3
20260508175816 10 121 1.6 1.6 0.00 0.00 0.00 43 1009.4
20260508175312 10 14 4.8 4.8 0.00 0.00 0.00 46 1009.1
20260508174811 10 242 3.2 3.2 0.00 0.00 0.00 44 1009.3
20260508174308 10 169 0.0 1.6 0.00 0.00 0.00 44 1009.3
20260508173804 10 177 0.0 0.0 0.00 0.00 0.00 47 1009.1
20260508173301 9 177 0.0 1.6 0.00 0.00 0.00 44 1009.2
20260508172757 9 184 3.2 3.2 0.00 0.00 0.00 45 1009.0
20260508172254 9 175 0.0 0.0 0.00 0.00 0.00 46 1009.2
20260508171750 9 159 1.6 3.2 0.00 0.00 0.00 45 1009.1
20260508171246 9 169 3.2 3.2 0.00 0.00 0.00 44 1009.3
20260508170743 10 182 0.0 0.0 0.00 0.00 0.00 45 1009.2
20260508170242 10 1 4.8 8.0 0.00 0.00 0.00 45 1009.2
20260508165738 9 173 0.0 0.0 0.00 0.00 0.00 45 1009.2
20260508165235 9 331 3.2 3.2 0.00 0.00 0.00 45 1009.2
20260508164731 9 178 0.0 0.0 0.00 0.00 0.00 44 1009.2
20260508164228 8 190 1.6 1.6 0.00 0.00 0.00 45 1009.1
20260508163726 8 177 0.0 0.0 0.00 0.00 0.00 46 1009.3
20260508163224 8 171 3.2 4.8 0.00 0.00 0.00 46 1009.5
20260508162719 8 193 0.0 0.0 0.00 0.00 0.00 45 1009.3
20260508162216 8 180 4.8 4.8 0.00 0.00 0.00 46 1009.5
20260508161714 9 165 3.2 4.8 0.00 0.00 0.00 45 1009.3
20260508161211 9 180 0.0 0.0 0.00 0.00 0.00 44 1009.3
20260508160709 9 171 3.2 3.2 0.00 0.00 0.00 45 1009.3
20260508160206 8 180 1.6 3.2 0.00 0.00 0.00 46 1009.3
20260508155703 9 176 0.0 1.6 0.00 0.00 0.00 45 1009.4
20260508155200 9 174 0.0 1.6 0.00 0.00 0.00 47 1009.4
20260508154657 10 172 1.6 1.6 0.00 0.00 0.00 47 1009.3
20260508154154 10 173 1.6 1.6 0.00 0.00 0.00 47 1009.3
20260508153650 8 3 4.8 4.8 0.00 0.00 0.00 50 1009.2
20260508153148 8 159 1.6 1.6 0.00 0.00 0.00 52 1009.3
20260508152644 9 356 8.0 9.7 0.00 0.00 0.00 48 1009.4
20260508152139 8 174 0.0 1.6 0.00 0.00 0.00 51 1009.4
20260508151636 9 167 0.0 1.6 0.00 0.00 0.00 52 1009.5
20260508151133 8 171 0.0 0.0 0.00 0.00 0.00 52 1009.6
20260508150630 8 184 0.0 0.0 0.00 0.00 0.00 53 1009.4
20260508150127 8 185 0.0 1.6 0.00 0.00 0.00 54 1009.6
20260508145623 8 154 1.6 1.6 0.00 0.00 0.00 51 1009.5
20260508145119 8 175 1.6 1.6 0.00 0.00 0.00 56 1009.4
20260508144617 8 178 3.2 8.0 0.00 0.00 0.00 56 1009.6
20260508144114 7 358 11.3 14.5 0.00 0.00 0.00 55 1009.3
20260508143612 8 145 0.0 1.6 0.00 0.00 0.00 56 1009.7
20260508143108 7 5 8.0 9.7 0.00 0.00 0.00 57 1009.6
20260508142605 7 353 8.0 9.7 0.00 0.00 0.00 58 1009.4
20260508142102 8 359 1.6 4.8 0.00 0.00 0.00 57 1009.4
20260508141558 7 2 8.0 11.3 0.00 0.00 0.00 57 1009.3
20260508141056 7 170 3.2 4.8 0.00 0.00 0.00 56 1009.6
20260508140553 7 171 1.6 1.6 0.00 0.00 0.00 58 1009.5
20260508140049 7 168 0.0 0.0 0.00 0.00 0.00 60 1009.5
20260508135545 7 183 1.6 1.6 0.00 0.00 0.00 57 1009.5
20260508135041 8 107 1.6 3.2 0.00 0.00 0.00 58 1009.4
20260508134538 8 164 1.6 3.2 0.00 0.00 0.00 57 1009.3
20260508134035 8 164 6.4 12.9 0.00 0.00 0.00 54 1009.3
20260508133532 7 180 0.0 0.0 0.00 0.00 0.00 56 1009.3
20260508133029 7 355 3.2 3.2 0.00 0.00 0.00 57 1009.4
20260508132527 7 348 3.2 8.0 0.00 0.00 0.00 57 1009.2
20260508132024 7 181 1.6 1.6 0.00 0.00 0.00 57 1009.2
20260508131519 8 78 3.2 4.8 0.00 0.00 0.00 56 1009.1
20260508131016 8 154 0.0 1.6 0.00 0.00 0.00 57 1009.0
20260508130513 8 180 1.6 3.2 0.00 0.00 0.00 55 1009.0
20260508130009 8 175 1.6 1.6 0.00 0.00 0.00 52 1009.0
20260508125505 8 193 3.2 3.2 0.00 0.00 0.00 55 1009.0
20260508125003 8 176 0.0 1.6 0.00 0.00 0.00 58 1009.0
20260508124501 8 167 1.6 1.6 0.00 0.00 0.00 54 1009.0
20260508123957 8 171 4.8 4.8 0.00 0.00 0.00 53 1008.9
20260508123456 9 162 1.6 1.6 0.00 0.00 0.00 55 1009.0
20260508122952 11 172 12.9 17.7 0.00 0.00 0.00 49 1008.8
20260508122449 10 175 0.0 0.0 0.00 0.00 0.00 56 1008.8
20260508121946 10 169 0.0 0.0 0.00 0.00 0.00 60 1008.8
20260508121444 9 163 0.0 1.6 0.00 0.00 0.00 63 1008.8
20260508120942 8 171 0.0 0.0 0.00 0.00 0.00 68 1008.7
20260508120439 7 175 1.6 3.2 0.00 0.00 0.00 69 1008.8
20260508115937 7 189 1.6 1.6 0.00 0.00 0.00 69 1008.9
20260508115435 7 173 0.0 0.0 0.00 0.00 0.00 72 1008.7
20260508114931 6 176 1.6 1.6 0.00 0.00 0.00 72 1008.8
20260508114428 6 170 0.0 1.6 0.00 0.00 0.00 73 1009.0
20260508113925 5 174 1.6 3.2 0.00 0.00 0.00 75 1008.7
20260508113423 3 172 0.0 0.0 0.00 0.00 0.00 81 1008.6